Regional Weather Roundup
Issued by NWS Sterling, VA

Home | Current Version | Previous Version | Text Only | Print | Product List | Glossary Off
Versions: 1 2 3 4 5 6 7 8 9 10 11 12 13 14 15 16 17 18 19 20 21 22 23 24 25 26 27 28 29 30 31 32 33 34 35 36 37 38 39 40 41 42 43 44 45 46 47 48 49 50

000
ASUS41 KLWX 261811
RWRLWX

REGIONAL WEATHER ROUNDUP
NATIONAL WEATHER SERVICE BALTIMORE MD/WASHINGTON DC
200 PM EDT WED APR 26 2017

Note: "FAIR" indicates few or no clouds below 12,000 feet
with no significant weather and/or obstructions to visibility.
 TC=TEMPERATURE CELSIUS

 * =Non NWS site. Station does not report precipitation (e.g. rain,
    snow, etc.), thunder, or fog.

DCZ001-MDZ009-015-VAZ040>042-051-053>054-261900-
WASHINGTON METRO

CITY           SKY/WX    TMP DP  RH WIND       PRES   REMARKS
WASHINGTON NAT CLOUDY    68  58  70 NW7       29.78F
DULLES         CLOUDY    67  57  70 NW8       29.78F
ANDREWS AFB    CLOUDY    65  57  74 N6        29.77F
FT BELVOIR     CLOUDY    67  57  68 N7        29.78S
QUANTICO       PTSUNNY   67  61  81 E9        29.79F
COLLEGE PARK*  CLOUDY    65  56  72 N5        29.77F
LEESBURG*      CLOUDY    68  61  77 N5        29.79F
MANASSAS*        N/A     69  59  70 CALM      29.78F

$$

MDZ006>007-011-014-261900-
BALTIMORE METRO

CITY           SKY/WX    TMP DP  RH WIND       PRES   REMARKS
BWI AIRPORT    CLOUDY    64  59  83 VRB3      29.76F
MD SCIENCE CTR   N/A     66  55  67 MISG      29.78F
MARTIN STATE   CLOUDY    64  61  88 CALM      29.79F
ANNAPOLIS      CLOUDY    65  57  75 NW6       29.77S
FORT MEADE*    CLOUDY    63  55  77 W5        29.79F

$$

MDZ012-015-019>023-261900-
MARYLAND EASTERN SHORE

CITY           SKY/WX    TMP DP  RH WIND       PRES   REMARKS
OCEAN CITY     CLOUDY    62  58  86 E8        29.76F
SALISBURY        N/A     63  60  90 W6        29.76F
BAY BRIDGE AP* CLOUDY    63  57  82 N7        29.78S
CAMBRIDGE*     CLOUDY    63  57  82 NW6       29.77S
EASTON*        CLOUDY    63  57  82 CALM      29.80F

$$

MDZ017>025-261900-
SOUTHERN MARYLAND

CITY           SKY/WX    TMP DP  RH WIND       PRES   REMARKS
PATUXENT RIVER CLOUDY    63  61  93 NE6       29.78R
ST INIGOES     CLOUDY    64  58  80 W7        29.77S
LEONARDTOWN*   CLOUDY    64  57  77 NW3       29.79S

$$

MDZ003>005-261900-
NORTH CENTRAL MARYLAND

CITY           SKY/WX    TMP DP  RH WIND       PRES   REMARKS
FREDERICK*     CLOUDY    66  61  82 N5        29.81F
HAGERSTOWN APT CLOUDY    67  57  70 MISG      29.78F
WESTMINSTER*   CLOUDY    63  59  88 N3        29.78F

$$

MDZ501>502-261900-
WESTERN MARYLAND

CITY           SKY/WX    TMP DP  RH WIND       PRES   REMARKS
OAKLAND*       SUNNY     66  52  59 W5        29.83S
CUMBERLAND*    SUNNY     73  57  56 CALM      29.80S

$$

VAZ025>031-261900-
SHENANDOAH VALLEY

CITY           SKY/WX    TMP DP  RH WIND       PRES   REMARKS
WINCHESTER*    PTSUNNY   68  55  64 NE7       29.78S
FRONT ROYAL*   PTSUNNY   72  59  64 E5        29.77F
LURAY*         MOSUNNY   73  59  60 E5        29.77F
NEW MARKET*    MOSUNNY   71  57  59 SE3       29.76F
STAUNTON*      SUNNY     70  59  67 CALM      29.80F
WAYNESBORO*    SUNNY     73  59  62 CALM      29.79S

$$

WVZ021-048>050-054>055-261900-
EASTERN WEST VIRGINIA PANHANDLE

CITY           SKY/WX    TMP DP  RH WIND       PRES   REMARKS
MARTINSBURG    CLOUDY    67  57  70 SE3       29.77F
PETERSBURG*    SUNNY     74  61  63 CALM      29.77F

$$

VAZ036>039-050-261900-
CENTRAL FOOTHILLS

CITY           SKY/WX    TMP DP  RH WIND       PRES   REMARKS
CHARLOTTESVILL PTSUNNY   77  58  51 S7        29.76F
CULPEPER*      CLOUDY    73  60  65 NE5       29.78F
ORANGE*        PTSUNNY   72  57  60 CALM      29.77F
GORDONSVILLE*  CLOUDY    73  59  60 CALM      29.76F
WARRENTON*     PTSUNNY   71  55  57 CALM      29.77F

$$

VAZ055>057-261900-
NORTH AND CENTRAL PIEDMONT

CITY           SKY/WX    TMP DP  RH WIND       PRES   REMARKS
FREDERICKSBRG* CLOUDY    70  60  69 W5        29.77S
STAFFORD*      CLOUDY    67  60  75 CALM      29.82R

$$

NCZ024-NYZ072-PAZ021-071-VAZ022-071-261900-
OTHER REGIONAL OBSERVATIONS

CITY           SKY/WX    TMP DP  RH WIND       PRES   REMARKS
NEW YORK CITY  CLOUDY    59  56  89 E10       29.80S
PHILADELPHIA   CLOUDY    62  56  80 NE5       29.77F
PITTSBURGH     PTSUNNY   73  56  54 VRB7      29.75F
ROANOKE        MOSUNNY   76  59  55 N3        29.80F
RICHMOND       PTSUNNY   71  58  63 S7        29.78F
RALEIGH        MOSUNNY   77  63  61 SW13G20   29.81F

$$

ANZ530>537-261900-
MARINE OBSERVATIONS

STATION/POSITION TIME  TEMP    WIND        PRES
                       AIR SEA DIR/SP/G
                 (UTC) (F)     (DEG/KT/KT) (MB)
THOMAS PT LIGHT  1800   58 57   50/  6/  7   N/A
BALT KEY BRIDGE  1742   61     170/  2/  2 1008.3S
COVE POINT       1742   58      10/  5/  6 1009.1R
LEWISETTA        1742   63 62  320/  6/  8 1008.3R
SOLOMONS ISLAND  1742   63 60  340/  5/  8   N/A
PINEY POINT      1736          300/  9/ 11   N/A

$$




USA.gov is the U.S. government's official web portal to all federal, state and local government web resources and services.